[[{"header":{"parameterUnit":"m.s-1","parameterCategory":1,"la1":30.2991,"la2":30.254,"lo1":-89.0895,"lo2":-89.0444,"dy":0.0017,"dx":0.0017,"nx":28,"ny":28,"refTime":"2025-09-04T09:00:00:Z","depth":0,"parameterNumber":2,"parameterNumberName":"U-component_of_WINDS"},"data":[0,0,0,0,0,0,0,0,0,0,0,0,0,0,0,0,0,0,0,0,0,0,0,0,0,0,0,0,0,0,0,0,0,0,0,0,0,0,0,0,0,0,0,0,0,0,0,0,0,0,0,0,0,0,0,0,0,0,-2.3698,-2.3698,0,-2.3735,-2.3735,-2.3736,-2.3694,-2.3692,-2.3691,-2.3689,-2.3726,-2.3729,-2.3731,0,0,0,0,0,0,0,0,0,0,0,0,0,-2.359,-2.3592,-2.3698,-2.3698,-2.3699,-2.3735,-2.3735,-2.3736,-2.3694,-2.3692,-2.369,-2.3689,-2.3726,-2.3728,-2.3731,0,0,0,0,0,0,0,0,0,0,0,0,0,-2.3633,-2.3593,-2.3698,-2.3682,-2.3681,-2.3735,-2.3735,-2.3736,-2.3695,-2.3692,-2.369,-2.3688,-2.3725,-2.3728,-2.3732,-2.3802,0,0,-2.3743,-2.3745,0,0,0,0,0,0,0,0,-2.3631,-2.3637,-2.3684,-2.3683,-2.3682,-2.3707,-2.3711,-2.3758,-2.3695,-2.369,-2.3689,-2.3687,-2.3722,-2.3726,-2.3738,-2.3803,-2.3805,-2.3743,-2.3746,-2.3747,-2.3748,0,0,0,0,0,0,0,-2.3628,-2.3635,-2.3712,-2.3685,-2.3684,-2.3673,-2.3677,-2.3719,-2.3718,-2.369,-2.3687,-2.3692,-2.3721,-2.3734,-2.3738,-2.3806,-2.3743,-2.3747,-2.3749,-2.375,-2.393,-2.3932,0,0,0,0,0,0,-2.3626,-2.3633,-2.3711,-2.3713,-2.365,-2.3677,-2.3681,-2.3702,-2.3718,-2.3718,-2.3694,-2.369,-2.3729,-2.3734,-2.3739,-2.3822,-2.3747,-2.3751,-2.3753,-2.3927,-2.393,-2.3933,0,0,0,0,0,0,-2.3624,-2.3634,-2.371,-2.3672,-2.3681,-2.3681,-2.3705,-2.3704,-2.3717,-2.3721,-2.372,-2.3708,-2.3727,-2.3734,-2.3786,-2.3822,-2.3752,-2.3756,-2.3924,-2.3928,-2.3932,-2.3987,0,0,0,0,0,0,-2.3621,-2.3633,-2.366,-2.3673,-2.3683,-2.3756,-2.3707,-2.3706,-2.3723,-2.3719,-2.3734,-2.3734,-2.3726,-2.3781,-2.379,-2.3826,-2.3758,-2.3921,-2.3926,-2.3931,-2.3982,-2.3993,-2.4002,0,0,0,0,0,-2.3618,-2.3674,-2.3662,-2.3671,-2.3717,-2.3759,-2.3764,-2.3754,-2.3727,-2.3753,-2.3756,-2.3734,-2.3817,-2.3787,-2.3797,-2.3834,-2.3919,-2.3925,-2.393,-2.3978,-2.3991,-2.4001,0,0,0,0,0,0,-2.3665,-2.3676,-2.3662,-2.3724,-2.3741,-2.3751,-2.3785,-2.3768,-2.3793,-2.3787,-2.3773,-2.3777,-2.3832,-2.3839,-2.3805,-2.3903,-2.3863,-2.3871,-2.3896,-2.3908,-2.3918,-2.3915,-2.3762,0,0,0,0,0,-2.3683,-2.3716,-2.3723,-2.3778,-2.3787,-2.3785,-2.3802,-2.3793,-2.381,-2.3816,-2.3823,-2.3839,-2.3869,-2.3889,-2.3917,-2.3983,-2.3986,-2.4014,-2.4024,-2.4032,-2.4038,-2.4073,-2.4086,-2.3952,-2.3952,-2.3952,0,0,-2.3719,-2.3729,-2.3751,-2.3787,-2.3799,-2.3834,-2.3791,-2.3829,-2.3854,-2.3822,-2.3872,-2.3877,-2.3895,-2.3954,-2.3981,-2.3961,-2.4076,-2.4039,-2.4045,-2.4048,-2.4081,-2.4093,-2.4104,-2.3956,-2.3955,-2.3955,0,0,-2.3804,-2.3815,-2.3861,-2.3874,-2.3893,-2.3891,-2.3902,-2.3915,-2.3918,-2.3967,-2.3944,-2.3974,-2.4026,-2.4039,-2.4053,-2.4143,-2.4123,-2.4152,-2.4202,-2.4236,-2.4247,-2.4256,-2.4288,-2.4299,-2.4159,-2.4159,-2.416,0,-2.3847,-2.3898,-2.3887,-2.3927,-2.3944,-2.3917,-2.3963,-2.3976,-2.4003,-2.4014,-2.3992,-2.4057,-2.4067,-2.4129,-2.4151,-2.4163,-2.4175,-2.415,-2.4246,-2.4256,-2.4264,-2.4294,-2.4306,-2.4163,-2.4162,-2.4162,-2.4162,0,-2.395,-2.3986,-2.4021,-2.4048,-2.4068,-2.4111,-2.4107,-2.4129,-2.4118,-2.4118,-2.4169,-2.418,-2.421,-2.4224,-2.4214,-2.4285,-2.4272,-2.4249,-2.4209,-2.428,-2.4308,-2.4319,-2.4168,-2.4166,-2.4165,-2.4165,0,0,-2.4065,-2.4085,-2.4098,-2.411,-2.4128,-2.4155,-2.4197,-2.4226,-2.4245,-2.4265,-2.4299,-2.4344,-2.4322,-2.4338,-2.4329,-2.4359,-2.4429,-2.4332,-2.4332,-2.4349,-2.4507,-2.4524,-2.4538,-2.4417,-2.4419,-2.442,-2.4505,0,-2.4149,-2.4222,-2.4213,-2.4282,-2.4315,-2.429,-2.4326,-2.4342,-2.4343,-2.4371,-2.4373,-2.4404,-2.4374,-2.4383,-2.4412,-2.4415,-2.4461,-2.4408,-2.4448,-2.4449,-2.4443,-2.4552,-2.457,-2.465,-2.4516,-2.4518,-2.4519,0,-2.4257,-2.4281,-2.4353,-2.4366,-2.438,-2.4413,-2.4438,-2.4466,-2.4482,-2.4481,-2.4499,-2.4485,-2.4526,-2.4486,-2.4543,-2.4508,-2.4524,-2.4528,-2.453,-2.4533,-2.4488,-2.4557,-2.4675,-2.4687,-2.4537,-2.4535,-2.4534,0,-2.4333,-2.4383,-2.4432,-2.4443,-2.446,-2.4483,-2.4492,-2.4506,-2.4524,-2.4547,-2.4558,-2.4585,-2.46,-2.4621,-2.4615,-2.4586,-2.4673,-2.4632,-2.4673,-2.4673,-2.4691,-2.469,-2.4813,-2.4703,-2.4703,-2.4703,-2.4702,0,-2.4427,-2.4473,-2.4466,-2.4497,-2.4547,-2.4536,-2.4586,-2.4591,-2.4604,-2.4635,-2.4615,-2.4644,-2.4634,-2.4663,-2.4658,-2.4706,-2.4712,-2.4713,-2.4711,-2.4714,-2.4714,-2.4723,-2.4718,-2.4706,-2.4705,-2.4704,-2.4704,0,-2.452,-2.4518,-2.457,-2.4582,-2.4586,-2.4622,-2.4632,-2.4661,-2.4661,-2.47,-2.4709,-2.4709,-2.4742,-2.4738,-2.4774,-2.4771,-2.483,-2.4821,-2.4824,-2.4822,-2.4862,-2.4858,-2.4995,-2.5012,-2.4892,-2.4893,-2.4894,0,-2.458,-2.4615,-2.463,-2.4649,-2.4659,-2.4691,-2.4709,-2.47,-2.472,-2.4741,-2.4767,-2.4798,-2.4822,-2.4876,-2.4879,-2.4907,-2.4899,-2.4945,-2.4903,-2.4905,-2.4899,-2.4896,-2.49,-2.4953,-2.4954,-2.4955,-2.4956,0,-2.4688,-2.4685,-2.4712,-2.4739,-2.4761,-2.4782,-2.4801,-2.4818,-2.481,-2.4834,-2.4867,-2.4886,-2.4923,-2.4954,-2.498,-2.4988,-2.4971,-2.4969,-2.498,-2.4984,-2.4983,-2.4983,-2.4846,-2.4966,-2.4965,-2.4964,-2.4964,-2.4963,-2.4765,-2.4794,-2.481,-2.4841,-2.4854,-2.4872,-2.4899,-2.4903,-2.493,-2.496,-2.4953,-2.4991,-2.5006,-2.504,-2.5051,-2.508,-2.5063,-2.5078,-2.5082,-2.5086,-2.509,-2.498,-2.5084,-2.5084,-2.5084,-2.5084,-2.5083,0,-2.4871,-2.488,-2.4908,-2.4935,-2.4959,-2.4941,-2.4961,-2.4982,-2.5016,-2.5032,-2.5056,-2.5094,-2.5124,-2.513,-2.5158,-2.518,-2.5173,-2.5188,-2.5186,-2.5188,-2.5104,-2.5092,-2.5193,-2.5193,-2.5193,-2.5193,-2.5193,-2.5193,-2.4929,-2.4977,-2.4976,-2.503,-2.5038,-2.5075,-2.5088,-2.5104,-2.5117,-2.516,-2.5185,-2.5189,-2.52,-2.523,-2.5256,-2.5257,-2.5268,-2.5286,-2.5284,-2.5205,-2.5194,-2.5184,-2.5172,-2.5289,-2.5289,-2.5365,-2.5366,-2.5366]},{"header":{"parameterUnit":"m.s-1","parameterCategory":1,"la1":30.2991,"la2":30.254,"lo1":-89.0895,"lo2":-89.0444,"dy":0.0017,"dx":0.0017,"nx":28,"ny":28,"refTime":"2025-09-04T09:00:00:Z","depth":0,"parameterNumber":3,"parameterNumberName":"V-component_of_WINDS"},"data":[0,0,0,0,0,0,0,0,0,0,0,0,0,0,0,0,0,0,0,0,0,0,0,0,0,0,0,0,0,0,0,0,0,0,0,0,0,0,0,0,0,0,0,0,0,0,0,0,0,0,0,0,0,0,0,0,0,0,2.6877,2.6877,0,2.6873,2.6873,2.6873,2.6836,2.6835,2.6835,2.6834,2.683,2.6831,2.6832,0,0,0,0,0,0,0,0,0,0,0,0,0,2.6852,2.6853,2.6877,2.6877,2.6877,2.6873,2.6873,2.6873,2.6837,2.6835,2.6834,2.6833,2.683,2.6831,2.6832,0,0,0,0,0,0,0,0,0,0,0,0,0,2.6857,2.6853,2.6877,2.6858,2.6856,2.6873,2.6873,2.6873,2.6837,2.6835,2.6834,2.6833,2.683,2.6831,2.6832,2.6867,0,0,2.6835,2.6836,0,0,0,0,0,0,0,0,2.6857,2.6858,2.6861,2.6859,2.6858,2.6854,2.6863,2.6871,2.6837,2.6844,2.6834,2.6832,2.6839,2.6839,2.6842,2.6866,2.6866,2.6835,2.6836,2.6837,2.6837,0,0,0,0,0,0,0,2.6857,2.6858,2.6875,2.6861,2.6859,2.685,2.6849,2.6865,2.685,2.6844,2.6841,2.6841,2.6838,2.6841,2.6841,2.6866,2.6835,2.6836,2.6837,2.6838,2.6918,2.692,0,0,0,0,0,0,2.6859,2.6858,2.6876,2.6875,2.6854,2.6852,2.6851,2.6856,2.6849,2.6847,2.6842,2.6839,2.6839,2.684,2.6841,2.688,2.6837,2.6838,2.6838,2.6917,2.6919,2.692,0,0,0,0,0,0,2.6859,2.6861,2.6876,2.6866,2.6867,2.6853,2.686,2.6857,2.686,2.6848,2.6845,2.6848,2.6838,2.684,2.686,2.688,2.6838,2.6839,2.6915,2.6917,2.692,2.696,0,0,0,0,0,0,2.6858,2.6861,2.6874,2.6867,2.6868,2.6895,2.6862,2.6858,2.6862,2.6858,2.6853,2.685,2.6837,2.6859,2.6861,2.6881,2.684,2.6913,2.6916,2.6919,2.6956,2.6963,2.6968,0,0,0,0,0,2.6857,2.6886,2.6875,2.6877,2.6884,2.6896,2.6897,2.6881,2.6864,2.6876,2.6869,2.6851,2.6878,2.6861,2.6864,2.6884,2.6912,2.6915,2.6919,2.6954,2.6962,2.6968,0,0,0,0,0,0,2.6896,2.6884,2.6872,2.6899,2.6899,2.689,2.6905,2.689,2.6895,2.6891,2.6872,2.6871,2.6895,2.6892,2.6873,2.6917,2.6892,2.6896,2.6917,2.6925,2.6931,2.693,2.6841,0,0,0,0,0,2.6907,2.6918,2.6908,2.6932,2.6933,2.6919,2.6924,2.6912,2.6911,2.6911,2.6905,2.6905,2.6913,2.6919,2.6926,2.6957,2.6954,2.6971,2.6977,2.6982,2.6986,2.7,2.7008,2.6931,2.6931,2.6931,0,0,2.6931,2.6926,2.6934,2.694,2.6938,2.695,2.6919,2.6933,2.6941,2.6913,2.6932,2.6928,2.6927,2.6952,2.6963,2.695,2.7006,2.6987,2.6991,2.6991,2.7004,2.7012,2.7018,2.6933,2.6933,2.6933,0,0,2.698,2.6978,2.6997,2.6997,2.6995,2.6986,2.6991,2.6984,2.698,2.6999,2.6978,2.6988,2.7003,2.7003,2.7004,2.7054,2.7037,2.7057,2.7088,2.7102,2.7108,2.7113,2.713,2.7136,2.7061,2.7061,2.7061,0,2.7009,2.7026,2.701,2.7024,2.7027,2.7003,2.7022,2.7022,2.7023,2.7026,2.7012,2.703,2.7027,2.7052,2.7064,2.7067,2.7071,2.7057,2.7109,2.7114,2.7118,2.7134,2.714,2.7063,2.7063,2.7063,2.7062,0,2.7062,2.7074,2.709,2.7091,2.7096,2.7113,2.7099,2.7107,2.7095,2.7087,2.7106,2.7103,2.7108,2.7114,2.7102,2.7137,2.7129,2.7112,2.7086,2.7128,2.7142,2.7148,2.7066,2.7066,2.7065,2.7064,0,0,2.7133,2.7125,2.7131,2.7131,2.7128,2.7137,2.7153,2.7158,2.7164,2.7166,2.7179,2.7192,2.7177,2.7179,2.7168,2.7181,2.7219,2.7163,2.7162,2.7172,2.7255,2.7267,2.7274,2.7209,2.721,2.7211,2.7255,0,2.7179,2.7206,2.7192,2.722,2.7231,2.7208,2.7222,2.7222,2.7215,2.7223,2.7217,2.7226,2.7206,2.7207,2.7219,2.7212,2.7235,2.7209,2.7219,2.722,2.7218,2.7281,2.7293,2.7335,2.7261,2.7262,2.7262,0,2.7236,2.7239,2.7269,2.7263,2.7267,2.728,2.7283,2.7292,2.7291,2.7285,2.7288,2.7274,2.7289,2.7265,2.7286,2.7268,2.7272,2.7269,2.7271,2.7269,2.7242,2.728,2.7348,2.7354,2.7271,2.727,2.727,0,2.7283,2.7296,2.7315,2.7316,2.731,2.7319,2.7317,2.7315,2.7319,2.7323,2.7325,2.7331,2.7333,2.7338,2.7325,2.7309,2.7348,2.7323,2.7343,2.7343,2.735,2.735,2.7418,2.7356,2.7356,2.7356,2.7356,0,2.7335,2.7353,2.7336,2.7347,2.7367,2.7352,2.7372,2.7368,2.7366,2.7376,2.7358,2.7368,2.7351,2.736,2.7351,2.7368,2.737,2.7366,2.7363,2.7367,2.7367,2.7367,2.7364,2.7357,2.7357,2.7357,2.7356,0,2.739,2.7379,2.7398,2.7391,2.739,2.7405,2.7399,2.7409,2.7402,2.7415,2.7418,2.7407,2.7416,2.7404,2.7412,2.7406,2.743,2.7423,2.743,2.7427,2.7448,2.7445,2.7517,2.7526,2.746,2.746,2.7461,0,2.7423,2.7436,2.7431,2.7436,2.7435,2.7445,2.7449,2.7434,2.7439,2.7439,2.7449,2.7457,2.7462,2.7477,2.747,2.7476,2.7468,2.7493,2.7469,2.7472,2.7467,2.7466,2.7466,2.7498,2.7499,2.7499,2.75,0,2.7481,2.7475,2.7482,2.7487,2.7492,2.7495,2.7497,2.7502,2.7487,2.7494,2.7503,2.7507,2.7515,2.7522,2.7526,2.7524,2.7509,2.7508,2.7512,2.7515,2.7518,2.7515,2.7442,2.7506,2.7505,2.7505,2.7504,2.7504,2.7525,2.7536,2.7534,2.7542,2.7541,2.7543,2.7553,2.7547,2.7554,2.7559,2.755,2.7561,2.756,2.7564,2.7564,2.7572,2.7562,2.7569,2.757,2.7572,2.7574,2.7518,2.7573,2.7573,2.7573,2.7573,2.7573,0,2.7582,2.7579,2.7587,2.7589,2.7596,2.7582,2.7583,2.7589,2.7599,2.7599,2.7604,2.7614,2.7622,2.7615,2.7621,2.7629,2.7622,2.7631,2.7629,2.7629,2.7584,2.7579,2.7636,2.7636,2.7636,2.7636,2.7636,2.7636,2.7612,2.7629,2.7623,2.764,2.7637,2.7648,2.7649,2.7651,2.7651,2.7663,2.7669,2.7665,2.7662,2.7668,2.7674,2.7672,2.7674,2.7685,2.768,2.7638,2.7632,2.7626,2.7621,2.7686,2.7686,2.7724,2.7724,2.7724]}]]